Date String (YYYY-MM-DD hh:mm:ss) UTC,Instrument flags,absolute air pressure of the measurement (hPa),sample flow rate (lpm),inlet stack bypass flow (lpm),air temperature of the measurement (°C),ambient temperature measured by the external sensor (°C),aerosol sample conditioner tube jacket temperature (°C),OPC LED temperature (°C),internal box temperature (°C),relative humidity of the measurement (%),span deviation,mass concentration of particles derived from Lorenz-Mie calculation of OPC scattering (μg/m³),mass concentration of particles derived from Lorenz-Mie calculation of OPC scattering (μg/m³),mass concentration of particles derived from Lorenz-Mie calculation of OPC scattering (μg/m³)
DateTimeUTC,F1_M11,P_M11,Q1_M11,Q2_M11,T1_M11,T2_M11,T3_M11,T4_M11,T5_M11,U1_M11,ZSPAN_M11,X0_M11,X2_M11,X1_M11
2024-03-09 06:00:00,SystemResetWarning,0834.0,5.01,000.00,018.7,018.1,000.0,027.3,020.3,17.8,0000.0,0008.39,0005.51,0005.42
2024-03-09 06:01:00,SystemResetWarning,0834.0,5.00,000.00,018.6,017.7,000.0,027.2,020.1,17.9,0000.0,0007.99,0005.50,0005.41
2024-03-09 06:02:00,SystemResetWarning,0833.9,5.00,000.00,018.5,017.4,000.0,027.2,020.0,18.0,0000.0,0007.83,0005.50,0005.40
2024-03-09 06:03:00,SystemResetWarning,0833.9,5.00,000.00,018.5,017.2,000.0,027.2,020.0,18.0,0000.0,0007.87,0005.51,0005.40
2024-03-09 06:04:00,SystemResetWarning,0833.9,4.99,000.00,018.4,017.0,000.0,027.2,020.0,18.0,0000.0,0007.84,0005.51,0005.41
2024-03-09 06:05:00,SystemResetWarning,0833.9,4.99,000.00,018.4,016.9,000.0,027.3,020.0,18.0,0000.0,0007.81,0005.53,0005.43
2024-03-09 06:06:00,SystemResetWarning,0833.9,5.02,000.00,018.4,017.5,000.0,027.3,020.3,18.0,0000.0,0007.60,0005.55,0005.44
2024-03-09 06:07:00,SystemResetWarning,0833.9,5.00,000.00,018.7,018.6,000.0,027.4,020.9,17.8,0000.0,0007.66,0005.57,0005.45
2024-03-09 06:08:00,SystemResetWarning,0833.9,4.99,000.00,018.8,018.9,000.0,027.3,021.0,17.6,0000.0,0007.71,0005.59,0005.46
2024-03-09 06:09:00,SystemResetWarning,0833.9,4.99,000.00,018.8,018.6,000.0,027.3,020.7,17.6,0000.0,0007.79,0005.63,0005.49
2024-03-09 06:10:00,SystemResetWarning,0833.9,5.01,000.00,018.8,018.4,000.0,027.3,020.5,17.6,0000.0,0007.86,0005.69,0005.53
2024-03-09 06:11:00,SystemResetWarning,0833.9,5.01,000.00,018.7,018.1,000.0,027.2,020.3,17.7,0000.0,0007.88,0005.71,0005.56
2024-03-09 06:12:00,SystemResetWarning,0833.8,4.99,000.00,018.6,017.8,000.0,027.2,020.1,17.7,0000.0,0007.90,0005.73,0005.58
2024-03-09 06:13:00,SystemResetWarning,0833.8,4.99,000.00,018.5,017.6,000.0,027.2,020.0,17.7,0000.0,0007.95,0005.76,0005.60
2024-03-09 06:14:00,SystemResetWarning,0833.8,5.00,000.00,018.5,017.4,000.0,027.2,020.0,17.7,0000.0,0007.96,0005.76,0005.61
2024-03-09 06:15:00,SystemResetWarning,0833.8,5.01,000.00,018.4,017.2,000.0,027.2,020.0,17.7,0000.0,0007.98,0005.77,0005.61
2024-03-09 06:16:00,SystemResetWarning,0833.8,5.01,000.00,018.4,017.1,000.0,027.2,020.0,17.7,0000.0,0007.98,0005.76,0005.61
2024-03-09 06:17:00,SystemResetWarning,0833.8,5.01,000.00,018.4,017.4,000.0,027.2,020.2,17.7,0000.0,0007.78,0005.76,0005.62
2024-03-09 06:18:00,SystemResetWarning,0833.9,5.00,000.00,018.6,018.4,000.0,027.3,020.7,17.5,0000.5,0007.77,0005.77,0005.64
2024-03-09 06:19:00,SystemResetWarning,0833.9,4.99,000.00,018.8,019.0,000.0,027.3,021.0,17.2,0001.4,0007.78,0005.79,0005.68
2024-03-09 06:20:00,SystemResetWarning,0833.8,4.99,000.00,018.8,018.7,000.0,027.3,020.8,17.1,0000.1,0007.76,0005.80,0005.69
2024-03-09 06:21:00,SystemResetWarning,0833.8,5.00,000.00,018.7,018.4,000.0,027.2,020.5,17.1,0000.0,0007.71,0005.78,0005.68
2024-03-09 06:22:00,SystemResetWarning,0833.8,5.01,000.00,018.7,018.0,000.0,027.2,020.3,17.1,0000.0,0007.70,0005.76,0005.66
2024-03-09 06:23:00,SystemResetWarning,0833.8,5.00,000.00,018.6,017.7,000.0,027.2,020.1,17.2,0000.0,0007.68,0005.74,0005.64
2024-03-09 06:24:00,SystemResetWarning,0833.8,4.99,000.00,018.5,017.5,000.0,027.2,020.0,17.2,0002.0,0007.64,0005.72,0005.62
2024-03-09 06:25:00,SystemResetWarning,0833.8,4.99,000.00,018.4,017.3,000.0,027.2,020.0,17.2,0000.3,0007.64,0005.72,0005.62
2024-03-09 06:26:00,SystemResetWarning,0833.8,5.01,000.00,018.4,017.1,000.0,027.2,020.0,17.2,0000.0,0007.75,0005.75,0005.63
2024-03-09 06:27:00,SystemResetWarning,0833.8,5.01,000.00,018.4,017.0,000.0,027.2,020.0,17.2,0001.6,0007.85,0005.79,0005.65
2024-03-09 06:28:00,SystemResetWarning,0833.8,5.01,000.00,018.4,017.7,000.0,027.3,020.4,17.1,0002.0,0007.93,0005.81,0005.65
2024-03-09 06:29:00,SystemResetWarning,0833.8,5.00,000.00,018.6,018.7,000.0,027.3,020.9,16.8,0001.0,0007.95,0005.82,0005.66
2024-03-09 06:30:00,SystemResetWarning,0833.8,5.00,000.00,018.9,019.3,000.0,027.4,021.3,16.4,0000.0,0007.97,0005.82,0005.66
2024-03-09 06:31:00,SystemResetWarning,0833.8,4.98,000.00,018.9,019.1,000.0,027.3,021.0,16.2,0000.0,0007.97,0005.81,0005.65
2024-03-09 06:32:00,SystemResetWarning,0833.8,5.00,000.00,018.9,018.7,000.0,027.3,020.7,16.1,0000.8,0008.02,0005.81,0005.63
2024-03-09 06:33:00,SystemResetWarning,0833.7,5.01,000.00,018.8,018.3,000.0,027.3,020.5,16.0,0002.4,0008.00,0005.80,0005.63
2024-03-09 06:34:00,SystemResetWarning,0833.8,5.00,000.00,018.7,018.0,000.0,027.2,020.3,15.9,0000.8,0007.98,0005.78,0005.61
2024-03-09 06:35:00,SystemResetWarning,0833.7,4.99,000.00,018.6,017.6,000.0,027.2,020.1,15.9,0000.0,0008.06,0005.75,0005.58
2024-03-09 06:36:00,SystemResetWarning,0833.7,4.99,000.00,018.5,017.4,000.0,027.2,020.0,16.0,0000.0,0008.00,0005.71,0005.55
2024-03-09 06:37:00,SystemResetWarning,0833.7,5.01,000.00,018.5,017.2,000.0,027.2,020.0,16.1,0000.0,0007.85,0005.64,0005.51
2024-03-09 06:38:00,SystemResetWarning,0833.7,5.01,000.00,018.4,017.0,000.0,027.2,020.0,16.1,0000.0,0007.75,0005.59,0005.47
2024-03-09 06:39:00,SystemResetWarning,0833.7,5.00,000.00,018.4,017.5,000.0,027.3,020.3,16.0,0000.0,0007.61,0005.51,0005.41
2024-03-09 06:40:00,SystemResetWarning,0833.8,5.00,000.00,018.7,018.6,000.0,027.4,020.9,15.8,0000.0,0007.53,0005.46,0005.35
2024-03-09 06:41:00,SystemResetWarning,0833.8,4.99,000.00,018.8,018.9,000.0,027.3,021.0,15.6,0000.0,0007.44,0005.38,0005.29
2024-03-09 06:42:00,SystemResetWarning,0833.7,4.99,000.00,018.8,018.6,000.0,027.3,020.8,15.6,0000.0,0007.40,0005.33,0005.23
2024-03-09 06:43:00,SystemResetWarning,0833.7,5.01,000.00,018.8,018.3,000.0,027.3,020.5,15.6,0000.0,0007.28,0005.27,0005.18
2024-03-09 06:44:00,SystemResetWarning,0833.7,5.00,000.00,018.7,018.0,000.0,027.2,020.3,15.6,0000.0,0007.20,0005.22,0005.14
2024-03-09 06:45:00,SystemResetWarning,0833.7,5.00,000.00,018.6,017.7,000.0,027.2,020.1,15.5,0000.0,0007.14,0005.19,0005.10
2024-03-09 06:46:00,SystemResetWarning,0833.7,5.00,000.00,018.5,017.4,000.0,027.2,020.0,15.5,0000.0,0006.87,0005.14,0005.06
2024-03-09 06:47:00,SystemResetWarning,0833.7,4.99,000.00,018.4,017.2,000.0,027.2,020.0,15.5,0000.0,0006.81,0005.10,0005.01
2024-03-09 06:48:00,SystemResetWarning,0833.7,4.99,000.00,018.4,017.0,000.0,027.2,020.0,15.6,0000.0,0006.72,0005.05,0004.96
2024-03-09 06:49:00,SystemResetWarning,0833.8,5.01,000.00,018.4,017.4,000.0,027.3,020.2,15.6,0000.0,0006.59,0004.99,0004.91
2024-03-09 06:50:00,SystemResetWarning,0833.8,5.01,000.00,018.6,018.4,000.0,027.4,020.8,15.4,0000.0,0006.59,0004.96,0004.87
2024-03-09 06:51:00,SystemResetWarning,0833.8,4.99,000.00,018.9,019.3,000.0,027.4,021.2,15.2,0000.0,0006.48,0004.90,0004.80
2024-03-09 06:52:00,SystemResetWarning,0833.8,4.99,000.00,019.0,019.2,000.0,027.4,021.1,15.1,0000.0,0006.37,0004.84,0004.75
2024-03-09 06:53:00,SystemResetWarning,0833.7,5.01,000.00,018.9,018.9,000.0,027.3,020.8,15.2,0000.0,0006.22,0004.78,0004.71
2024-03-09 06:54:00,SystemResetWarning,0833.7,5.00,000.00,018.9,018.5,000.0,027.3,020.6,15.3,0000.0,0006.20,0004.74,0004.66
2024-03-09 06:55:00,SystemResetWarning,0833.7,5.00,000.00,018.8,018.1,000.0,027.3,020.3,15.4,0000.0,0006.32,0004.72,0004.63
2024-03-09 06:56:00,SystemResetWarning,0833.7,5.00,000.00,018.7,017.8,000.0,027.2,020.1,15.5,0000.0,0006.38,0004.69,0004.59
2024-03-09 06:57:00,SystemResetWarning,0833.7,5.00,000.00,018.6,017.5,000.0,027.2,020.0,15.6,0000.0,0006.31,0004.65,0004.56
2024-03-09 06:58:00,SystemResetWarning,0833.7,5.02,000.00,018.5,017.2,000.0,027.3,020.0,15.9,0000.0,0006.28,0004.63,0004.53
2024-03-09 06:59:00,SystemResetWarning,0833.7,4.99,000.00,018.4,017.1,000.0,027.2,020.0,16.0,0000.0,0006.26,0004.61,0004.51
